OBJECT M, 63221

Orbit data source: Space-Track

You're viewing an Uncataloged Satellite

Recently launched and/or uncataloged satellites may have evolving metadata. Metadata may include but not limited to: Owner, Maufacturer, Bus, Motor, and Mission.

OBJECT M, 63221 is a satellite in SSO that was launched on Sat, 15 Mar 2025 UTC via an FALCON 9 launch vehicle from the Air Force Western Test Range (AFWTR). Unknown objects in Earth's orbit typically refer to objects detected orbiting the Earth but have not yet been identified or cataloged. These objects could be anything from previously untracked satellites, spent rocket stages, debris from satellite collisions, or even natural meteoroids temporarily captured by Earth's gravity.

Loading next visibility...
Identifier
63221, 2025-052M
Orbit
SSO
Country
Flag of TBDTBD
Related business
None
Manufacturer
Unknown
Mission
Operational Defense Calibration
Bus & Motor
Unknown
Mass
Unknown
Launch date (UTC)
2025-03-15 (1 year ago)
Launch vehicle
FALCON 9
Launch site
Air Force Western Test Range (AFWTR)
Object type
Unknown
Shape & HBR
Box, 0.2 m
Radar Cross Section
0.080 m², Medium (>0.1 m² and < 1m²)

Expand to show TLE details & history
Last TLE update: 7 hours ago

TLE from 7 hours ago
0 OBJECT M
1 63221U 25052M   26193.12279587  .00002224  00000-0  10014-3 0  9999
2 63221  97.3861  84.8288 0005049  67.6866 292.4905 15.22099131 73638
Epoch: 2026-07-12T02:56Z
TLE epoch observation values (Epoch: 2026-07-12T02:56:49.563Z)
Latitude
-0.00002°
Longitude
110.5961°
Altitude
501.277 km
Speed
7.614 km/s
True Right ascension
05h 39m 18s
True Declination
0° 00' 00"
Sunlit
Object was in daylight at epoch
Visualization orbit readout
Latitude
Unknown
Longitude
Unknown
Altitude
Unknown
Speed
Unknown
Apparent Right ascension
Unknown
Apparent Declination
Unknown
Sunlit
N/A
Visualization observer readout
Local Sidereal Time
21:56:11
Azimuth
Unknown
Elevation
Unknown
Doppler factor
Unknown
Orbital elements
Apogee altitude
499.943 km
Perigee altitude
493.001 km
Semi-major axis
6,874.609 km
Eccentricity
0.0005
Inclination
97.3861°
RAAN
84.8288°
Arg. of periapsis
67.6866°
True anomaly
292.43703°
Mean anomaly
292.4905°
Eccentric anomaly
292.46377°
Mean motion
3.80777 °/min
Orbital period
94.54 mins
BSTAR
0.00010014
Loading maneuver chart data...
Computing Atmospheric mass density...
Loading historical data...
Loading historical data...
Loading historical data...
Loading historical data...
Loading historical data...
Loading historical data...
Loading historical data...

Documentation

Showing up to 5 results
|